Location: Lake Arresoe
(56.0000°N, 12.5000°E)
Time: 09:56:58
(UTC+02:00)

FENGYUN 1C DEB - Pass Details

Date: 04 February 2022
Orbit: 673 x 853 km, 98.9° (Epoch: 15 May)

Event Time Altitude Azimuth Distance (km) Brightness Sun altitude
Rises 18:11:11 0° 25° (NNE) 3,265 ? -11.5°
Enters shadow 18:12:13 - 30° (NNE) 2,931 ? -11.7°
Exits shadow 18:15:01 13° 52° (NE) 2,175 ? -12.0°
Maximum altitude 18:17:49 19° 88° (E) 1,868 ? -12.4°
Drops below altitude 10° 18:21:31 10° 132° (SE) 2,429 ? -12.9°
Sets 18:24:38 0° 150° (SSE) 3,381 ? -13.4°
